Weather observations for the past three days for
Buckland, Buckland Airport
Metric (Imperial)
Date Time (akdt) Wind (kph) Vis. (km) Weather Sky Cond. Temperature (ºC) Relative Humidity Wind Chill (°C) Heat Index (°C) Pressure Precipitation (cm)
Air Dwpt 6 hour altimeter (cm) sea level (mb) 1 hr 3 hr 6 hr
Max. Min.
10 12:56 Calm 16.09 Mostly Cloudy BKN075 7.8 -2.2 50% 74.9 998.8
10 11:56 S 13 16.09 Fair CLR 7.8 -2.8 47% 6 74.9 998.9
10 10:56 N 15 16.09 Fair CLR 6.7 -2.8 51% 4 74.9 998.8
10 09:56 NW 13 16.09 Mostly Cloudy BKN046 4.4 -3.3 5 0 58% 2 74.93 999.0
10 08:56 Calm 16.09 Fair CLR 3.3 -3.9 60% 74.96 999.5
10 07:56 W 7 16.09 A Few Clouds FEW085 2.2 -3.9 64% 0 74.96 999.5
10 06:56 SE 13 16.09 Overcast OVC085 1.1 -3.3 73% -2 74.96 999.5
10 05:56 Calm 16.09 Overcast OVC044 1.7 -3.9 67% 74.96 999.5
10 04:56 Calm 16.09 Overcast OVC042 1.7 -3.3 70% 75.01 1000.0
10 03:56 Calm 16.09 Overcast BKN038 OVC050 1.7 -3.9 2.2 0.6 67% 75.01 1000.1
10 02:56 SW 7 16.09 Overcast OVC050 1.7 -3.9 67% -0 75.01 1000.2
10 01:56 W 9 16.09 Overcast OVC060 0.6 -3.9 72% -2 75.03 1000.4
10 00:56 NW 13 16.09 Partly Cloudy SCT050 1.7 -4.4 64% -2 75.01 1000.3
09 23:56 NW 13 16.09 Overcast OVC050 1.7 -4.4 64% -2 75.01 1000.2
09 22:56 NW 9 16.09 Overcast OVC050 1.7 -4.4 64% -1 75.03 1000.5
09 21:56 NW 19 16.09 Overcast OVC050 2.2 -5 4.4 2.2 59% -2 75.01 1000.3
09 20:56 N 20 16.09 Overcast OVC050 3.3 -6.1 51% -1 75.03 1000.3
09 19:56 N 19 16.09 Mostly Cloudy BKN055 3.9 -6.7 46% 0 75.03 1000.5
09 18:56 NW 20 16.09 Fair CLR 3.9 -6.7 46% 0 75.03 1000.5
09 16:56 N 24 16.09 Fair CLR 2.2 -8.3 46% -3 75.08 1001.3
09 15:56 N 22 16.09 Fair CLR 2.2 -8.3 2.2 -2.2 46% -2 75.13 1001.8
09 14:56 N 26 16.09 Fair CLR 2.2 -8.9 44% -3 75.16 1002.3
09 13:56 N 22 G 37 16.09 Fair CLR 1.7 -8.9 46% -3 75.21 0.0
09 12:56 NW 19 16.09 Fair CLR 1.1 -8.9 48% -3 75.21 0.0
09 11:56 N 22 16.09 Fair CLR 0.6 -8.3 52% -4 75.23 0.0
09 10:56 NW 19 16.09 Fair CLR -0.6 -6.1 67% -5 75.29 0.0
09 09:56 NW 26 16.09 Fair CLR -2.2 -5.6 -2.2 -7.2 78% -8 75.34 0.0
09 08:56 NW 22 16.09 Fair CLR -2.8 -6.1 78% -9 75.36 0.0
09 07:56 NW 20 16.09 Fair CLR -4.4 -6.7 84% -10 75.36 0.0
09 06:56 NW 9 16.09 Fair CLR -6.1 -7.8 88% -10 75.41 0.0
09 05:56 NW 13 16.09 A Few Clouds FEW055 -6.7 -7.8 92% -12 75.46 0.0
09 04:56 NW 13 16.09 Fair CLR -6.7 -7.2 96% -12 75.49 0.0
09 03:56 N 17 16.09 Fair CLR -6.1 -7.2 92% -12 75.51 0.0
09 02:56 NW 17 16.09 Fair CLR -5.6 -6.7 92% -11 75.54 0.0
08 23:56 NW 17 16.09 Overcast OVC009 -3.9 -5.6 88% -9 75.64 1008.7
08 22:56 NW 19 16.09 Mostly Cloudy BKN011 -3.9 -5.6 88% -9 75.72 1009.5
08 21:56 NW 22 16.09 Fair CLR -2.8 -5 0 -2.8 85% -9 75.74 1009.9
08 20:56 NW 26 16.09 Fair CLR -1.7 -5 78% -8 75.77 1010.4
08 19:56 NW 24 16.09 Fair CLR -0.6 -5.6 69% -6 75.82 1011.1
08 18:56 NW 30 G 37 16.09 Fair CLR 0 -6.1 64% -6 75.87 1011.7
08 17:56 W 26 16.09 Fair CLR 0 -6.1 64% -6 75.95 1012.7
08 16:56 NW 28 16.09 Fair CLR -0.6 -6.1 67% -7 76.02 1013.7
08 15:56 NW 26 16.09 Fair CLR -1.1 -5.6 -0.6 -6.7 72% -7 76.1 1014.6
08 14:56 W 26 16.09 A Few Clouds FEW013 -1.1 -5.6 72% -7 76.15 1015.4
08 13:56 NW 24 16.09 Mostly Cloudy BKN011 -2.2 -5.6 78% -8 76.23 1016.4
08 12:56 NW 22 16.09 Overcast OVC009 -3.3 -6.1 81% -9 76.28 1017.1
08 11:56 NW 20 16.09 Overcast OVC005 -5 -6.1 92% -11 76.33 1017.6
08 10:56 NW 22 16.09 Overcast OVC003 -5.6 -6.7 92% -12 76.38 1018.3
08 09:56 NW 20 14.48 Overcast OVC003 -6.7 -7.2 -4.4 -7.2 96% -13 76.4 1018.9
08 08:56 NW 24 11.27 Overcast OVC003 -7.2 -7.8 96% -14 76.43 1019.1
08 07:56 NW 28 11.27 Overcast OVC003 -7.2 -8.3 92% -15 76.45 1019.3
08 06:56 NW 19 6.44 Fog/Mist BKN003 -7.2 -7.8 96% -14 76.45 1019.4
08 05:56 NW 13 16.09 Fair CLR -7.2 -8.3 92% -12 76.48 1019.8
08 04:56 NW 15 16.09 Mostly Cloudy BKN060 -5.6 -7.2 89% -11 76.48 1019.8
08 03:56 NW 15 16.09 Overcast OVC060 -4.4 -6.7 -1.7 -4.4 84% -9 76.5 1020.1
08 02:56 NW 15 16.09 Overcast OVC060 -4.4 -6.7 84% -9 76.53 1020.4
08 01:56 NW 17 16.09 Overcast OVC060 -3.9 -6.1 85% -9 76.53 1020.6
08 00:56 NW 11 16.09 Overcast OVC060 -3.9 -6.1 85% -8 76.56 1020.6
07 23:56 NW 13 16.09 Partly Cloudy SCT060 -3.9 -6.1 85% -8 76.56 1020.8
07 22:56 NW 17 16.09 Fair CLR -2.8 -6.1 78% -8 76.56 1020.6
07 21:56 NW 22 16.09 Fair CLR -1.7 -6.1 0.6 -1.7 72% -7 76.53 1020.6
07 20:56 NW 20 16.09 A Few Clouds FEW055 -0.6 -6.7 64% -6 76.53 1020.5
07 19:56 NW 19 14.48 Light Snow BKN034 OVC041 -0.6 -6.7 64% -5 76.56 1020.7
07 18:56 NW 20 16.09 Mostly Cloudy BKN060 -0.6 -6.7 64% -6 76.56 1020.8
07 17:56 NW 20 16.09 Partly Cloudy SCT050 -0.6 -7.2 61% -6 76.56 1020.6
07 16:56 W 17 16.09 Mostly Cloudy BKN041 -0.6 -7.2 61% -5 76.56 1020.7
07 15:56 NW 17 16.09 Mostly Cloudy BKN035 0 -7.2 1.7 -4.4 59% -4 76.58 1021.0
07 14:56 NW 13 16.09 Mostly Cloudy BKN031 0.6 -7.8 54% -3 76.58 1021.1
07 13:56 W 17 G 26 16.09 Fair CLR -0.6 -7.2 61% -5 76.58 1021.1
Date Time (akdt) Wind (kph) Vis. (km) Weather Sky Cond. Air Dwpt Max. Min. Relative Humidity Wind Chill (°C) Heat Index (°C) altimeter (cm) sea level (mb) 1 hr 3 hr 6 hr
6 hour
Temperature (ºC) Pressure Precipitation (cm)